Retour au catalogue

ELECTRON KICK STAGE R/B

ActifPO
NORAD 47347·ROCKET BODY·🇺🇸 United States

Lancé Jan 20, 2021 depuis Rocket Lab Launch Complex 1

Loading…

Prochains Passages (prochaines 24 heures)

TLE

FraisSource: Space-Track

Époque: Sep 14, 2026, 22:31 UTC

1 47347U 21004B   26257.93864920  .00008904  00000-0  85772-3 0  9998
2 47347  90.1059 242.4967 0415532 319.4931  37.6011 14.44996941294481

Suivez ELECTRON KICK STAGE R/B en temps réel avec AllMySat

Download on the App Store